Probability
0 0 0 0 0 0 0 0 0 0 0 0 0 0 0 0 0 0 0 0 0 0 0 0 0 0 0 0 0 0 0 0 0 0 0 0 0 0 0 0 0 0 0 0
0 0 0 0 0 0 0 0 0 0 0 0 0 0 0 0 0 0 0 0 0 0 0 0 0 0 0 0 0 0 0 0 0 0 0 0 0 0 0 0 0 0 0 0
0 0 0 0 0 0 0 0 0 0 0 0 0 0 0 0 0 0 0 0 0 0 0 0 0 0 0 0 0 0 0 0 0 0 0 0 0 0 0 0 0 0 0 0
0 0 0 0 0 0 0 0 0 0 0 0 0 0 0 0 0 0 0 0 0 0 0 0 0 0 0 0 0 0 0 0 0 0 0 0 0 0 0 0 0 0 0 0
0 0 0 0 0 0 0 0 0 0 0 0 0 0 0 0 0 0 3 0 0 0 0 0 0 0 0 0 0 0 0 0 0 0 0 0 0 0 0 0 0 0 0 0
0 0 0 0 0 0 0 0 0 0 0 0 0 0 0 0 0 3 3 0 0 0 0 0 0 0 0 0 0 0 0 0 0 0 0 0 0 0 0 0 0 0 0 0
0 0 0 0 0 0 0 0 0 0 0 0 0 0 0 0 0 0 0 0 0 0 0 0 0 0 0 0 0 0 0 0 0 0 0 0 0 0 0 0 0 0 0 0
0 0 0 0 0 0 0 0 0 0 0 0 0 0 0 0 0 0 0 0 0 0 0 0 0 0 0 0 0 0 0 0 0 0 0 0 0 0 0 0 0 0 0 0
0 0 0 0 0 0 0 0 0 0 0 0 0 0 0 0 0 0 0 0 0 0 0 0 0 0 0 0 0 0 0 0 0 0 0 0 0 0 0 0 0 0 0 0
0 0 0 0 0 0 0 0 0 0 0 0 0 0 0 0 0 0 0 0 0 0 0 0 0 0 0 0 0 0 0 0 0 0 0 0 0 0 0 0 0 0 0 0
0 0 0 0 0 0 0 0 0 0 0 0 0 0 0 0 0 0 0 0 0 0 0 0 0 0 0 0 0 0 0 0 0 0 0 0 0 0 0 0 0 0 0 0
0 0 0 0 0 0 0 0 0 0 0 0 0 0 0 0 0 0 0 0 0 0 0 0 0 0 0 0 0 0 0 0 0 0 0 0 0 0 0 0 0 0 0 0
0 0 0 0 0 0 0 0 0 0 0 0 0 0 0 0 0 0 0 0 0 0 0 0 0 0 0 0 0 0 0 0 0 0 0 0 0 0 0 0 0 0 0 0
0 0 0 0 0 0 0 0 0 0 0 0 0 0 0 0 0 0 0 0 0 0 0 0 0 0 0 0 0 0 0 0 0 0 0 0 0 0 0 0 0 0 0 0
0 0 0 0 0 0 0 0 0 0 0 0 0 0 0 0 0 0 0 0 0 0 0 0 0 0 0 0 0 0 0 0 0 0 0 0 0 0 0 0 0 0 0 0
0 0 0 0 0 0 0 0 0 0 0 0 0 0 0 0 0 0 0 0 0 0 0 0 0 0 0 0 0 0 0 0 0 0 0 0 0 0 0 0 0 0 0 0
0 0 0 0 0 0 0 0 0 0 0 0 0 0 0 0 0 0 0 0 0 0 0 0 0 0 0 0 0 0 0 0 0 0 0 0 0 0 0 0 0 0 0 0
0 0 0 0 0 0 0 0 0 0 0 0 0 0 0 0 0 0 0 0 0 0 0 0 0 0 0 0 0 0 0 0 0 0 0 0 0 0 0 0 0 0 0 0
0 0 0 0 0 0 0 0 0 0 0 0 0 0 0 0 0 0 0 0 0 0 0 0 0 0 0 0 0 0 0 0 0 0 0 0 0 0 0 0 0 0 0 0
0 0 0 0 0 0 0 0 0 0 0 0 0 0 0 0 0 0 0 0 0 0 0 0 0 0 0 0 0 0 0 0 0 0 0 0 0 0 0 0 0 0 0 0
0 0 0 0 0 0 0 0 0 0 0 0 0 0 0 0 0 0 0 0 0 0 0 0 0 0 0 0 0 0 0 0 0 0 0 0 0 0 0 0 0 0 0 0
0 0 0 0 0 0 0 0 0 0 0 0 0 0 0 0 0 0 0 0 0 0 0 0 0 0 0 0 0 0 0 0 0 0 0 0 0 0 0 0 0 0 0 0
0 0 0 0 0 0 0 0 0 0 0 0 0 0 0 0 0 0 0 0 0 0 0 0 0 0 0 0 0 0 0 0 0 0 0 0 0 0 0 0 0 0 0 0
0 0 0 0 0 0 0 0 0 0 0 0 0 0 0 0 0 0 0 0 0 0 0 0 0 0 0 0 0 0 0 0 0 0 0 0 0 0 0 0 0 0 0 0
0 0 0 0 0 0 0 0 0 0 0 0 0 0 0 0 0 0 0 0 0 0 0 0 0 0 0 0 0 0 0 0 0 0 0 0 0 0 0 0 0 0 0 0
0 0 0 0 0 0 0 0 0 0 0 0 0 0 0 0 0 0 0 0 0 0 0 0 0 0 0 0 0 0 0 0 0 0 0 0 0 0 0 0 0 0 0 0
0 0 0 0 0 0 0 0 0 0 0 0 0 0 0 0 0 0 0 0 0 0 0 0 0 0 0 0 0 0 0 0 0 0 0 0 0 0 0 0 0 0 0 0
Height
5804 5805 5806 5808 5809 5811 5812 5815 5817 5819 5821 5824 5827 5829 5833 5835 5838 5841 5845 5849 5852 5856 5859 5862 5865 5868 5871 5874 5876 5878 5880 5882 5884 5885 5886 5887 5888 5888 5889 5889 5889 5889 5888 5887
5801 5802 5803 5805 5806 5808 5810 5811 5813 5816 5818 5821 5823 5826 5829 5833 5836 5839 5842 5846 5850 5853 5856 5859 5862 5865 5868 5871 5874 5876 5878 5880 5881 5883 5884 5885 5886 5886 5887 5887 5887 5887 5887 5886
5798 5799 5800 5802 5804 5806 5807 5808 5810 5813 5816 5817 5820 5823 5827 5830 5834 5837 5840 5843 5846 5850 5853 5856 5859 5862 5865 5868 5870 5873 5875 5877 5878 5880 5881 5882 5883 5884 5884 5885 5885 5885 5884 5884
5795 5797 5797 5802 5801 5802 5803 5805 5807 5810 5812 5814 5818 5820 5824 5827 5831 5834 5837 5840 5843 5846 5850 5853 5856 5859 5862 5864 5867 5869 5872 5874 5875 5877 5878 5879 5880 5881 5881 5882 5882 5882 5881 5881
5792 5793 5794 5798 5798 5799 5800 5802 5804 5806 5809 5812 5814 5817 5820 5824 5827 5830 5834 5837 5840 5843 5846 5849 5852 5855 5858 5861 5863 5866 5868 5870 5871 5873 5874 5875 5876 5877 5878 5878 5879 5878 5878 5878
5788 5789 5791 5796 5796 5796 5798 5799 5802 5803 5805 5808 5811 5814 5818 5821 5824 5826 5830 5833 5836 5839 5842 5846 5849 5851 5854 5857 5859 5862 5864 5865 5867 5869 5870 5871 5872 5873 5874 5874 5875 5875 5874 5874
5785 5786 5788 5792 5792 5793 5796 5798 5799 5801 5803 5805 5808 5812 5815 5817 5820 5823 5826 5829 5832 5835 5839 5842 5845 5847 5850 5853 5855 5857 5859 5861 5863 5864 5866 5867 5868 5869 5869 5870 5870 5870 5870 5869
5781 5783 5788 5788 5789 5791 5793 5795 5796 5799 5800 5803 5805 5807 5810 5813 5816 5819 5822 5825 5828 5832 5835 5837 5840 5843 5846 5848 5850 5852 5854 5856 5858 5859 5861 5862 5863 5864 5864 5865 5865 5865 5865 5864
5779 5783 5784 5785 5786 5788 5790 5792 5794 5796 5798 5800 5802 5804 5807 5810 5813 5816 5819 5821 5825 5828 5830 5833 5836 5838 5841 5843 5845 5847 5849 5851 5853 5854 5855 5856 5857 5858 5859 5859 5859 5859 5858 5858
5774 5777 5779 5781 5783 5785 5787 5788 5791 5792 5794 5797 5799 5801 5804 5806 5809 5812 5815 5817 5820 5823 5826 5828 5831 5833 5835 5837 5839 5841 5843 5845 5847 5848 5850 5851 5851 5852 5853 5853 5853 5853 5852 5851
5769 5773 5775 5778 5780 5782 5784 5785 5787 5789 5791 5793 5795 5798 5800 5802 5805 5807 5810 5813 5816 5818 5821 5823 5825 5828 5830 5832 5834 5836 5838 5840 5841 5843 5844 5845 5845 5846 5846 5846 5846 5846 5846 5845
5765 5768 5771 5774 5776 5778 5780 5781 5784 5786 5787 5789 5791 5794 5796 5798 5800 5803 5805 5808 5810 5813 5815 5818 5820 5822 5825 5826 5828 5830 5832 5834 5835 5836 5837 5838 5839 5839 5839 5839 5839 5838 5838 5837
5760 5763 5766 5768 5771 5773 5775 5777 5779 5782 5784 5785 5787 5789 5792 5794 5796 5798 5800 5803 5805 5808 5810 5812 5814 5816 5818 5820 5822 5824 5826 5827 5828 5829 5830 5831 5831 5831 5832 5832 5831 5830 5829 5828
5755 5758 5760 5763 5765 5768 5770 5772 5775 5777 5779 5781 5783 5785 5787 5789 5791 5793 5795 5797 5800 5802 5804 5806 5808 5810 5812 5813 5815 5817 5818 5820 5821 5822 5823 5823 5823 5824 5823 5823 5823 5822 5821 5819
5749 5752 5755 5757 5760 5762 5765 5767 5770 5772 5774 5776 5778 5780 5782 5784 5786 5788 5790 5792 5794 5796 5798 5800 5802 5804 5805 5806 5808 5809 5811 5812 5813 5814 5815 5815 5815 5815 5815 5815 5814 5813 5812 5810
5742 5745 5748 5751 5754 5756 5759 5761 5764 5766 5768 5770 5772 5774 5776 5778 5780 5782 5784 5786 5788 5789 5791 5793 5795 5797 5798 5799 5801 5802 5803 5804 5805 5806 5806 5807 5807 5806 5806 5805 5805 5803 5802 5800
5734 5738 5741 5744 5747 5749 5752 5755 5757 5760 5762 5764 5766 5768 5770 5772 5774 5776 5778 5779 5781 5783 5784 5786 5788 5789 5790 5792 5793 5794 5795 5796 5797 5797 5798 5798 5797 5797 5797 5796 5795 5793 5792 5790
5726 5730 5733 5736 5739 5742 5745 5747 5750 5753 5755 5757 5759 5761 5763 5765 5767 5769 5771 5772 5774 5776 5777 5778 5780 5781 5782 5784 5785 5786 5787 5787 5788 5788 5788 5788 5788 5787 5786 5785 5784 5782 5781 5778
5718 5721 5724 5727 5730 5734 5737 5739 5742 5745 5747 5750 5752 5754 5756 5758 5759 5761 5763 5765 5766 5768 5769 5770 5771 5773 5774 5775 5776 5776 5777 5778 5778 5778 5778 5778 5777 5776 5775 5774 5772 5771 5769 5766
5710 5713 5716 5719 5722 5725 5728 5731 5734 5736 5739 5741 5743 5745 5747 5749 5751 5753 5755 5756 5758 5759 5760 5761 5762 5763 5764 5765 5766 5766 5767 5767 5767 5767 5767 5766 5765 5764 5763 5761 5760 5758 5756 5753
5701 5704 5708 5711 5714 5717 5720 5722 5725 5727 5730 5732 5734 5737 5739 5741 5742 5744 5746 5747 5749 5750 5751 5752 5753 5754 5754 5755 5755 5756 5756 5756 5756 5755 5755 5754 5753 5752 5750 5749 5747 5745 5742 5740
5692 5695 5699 5702 5705 5708 5711 5713 5715 5718 5720 5723 5725 5727 5729 5731 5733 5734 5736 5737 5739 5740 5741 5742 5742 5743 5743 5744 5744 5744 5744 5744 5743 5743 5742 5741 5740 5738 5737 5735 5733 5731 5728 5726
5682 5686 5689 5692 5696 5698 5701 5704 5706 5708 5711 5713 5715 5717 5719 5721 5722 5724 5725 5727 5728 5729 5730 5730 5731 5731 5731 5731 5731 5731 5731 5731 5730 5729 5728 5727 5726 5725 5723 5721 5719 5716 5714 5711
5673 5676 5679 5683 5686 5689 5691 5694 5696 5698 5700 5702 5704 5706 5708 5710 5711 5712 5714 5715 5716 5717 5717 5718 5718 5718 5718 5718 5718 5718 5717 5717 5716 5715 5714 5713 5712 5710 5708 5706 5704 5701 5698 5695
5662 5666 5669 5672 5675 5678 5681 5683 5686 5688 5690 5692 5694 5695 5697 5698 5700 5701 5701 5702 5703 5704 5704 5705 5705 5705 5705 5705 5705 5704 5703 5703 5702 5701 5700 5698 5697 5695 5693 5691 5688 5685 5682 5679
5652 5655 5658 5661 5664 5667 5670 5672 5675 5677 5679 5680 5682 5684 5685 5686 5688 5688 5689 5690 5691 5691 5691 5691 5691 5691 5691 5691 5690 5690 5689 5688 5687 5686 5685 5683 5681 5679 5677 5674 5672 5669 5666 5663
5641 5644 5647 5650 5653 5656 5658 5660 5662 5665 5666 5668 5670 5671 5672 5674 5675 5676 5676 5677 5677 5677 5677 5677 5677 5677 5677 5677 5676 5675 5674 5673 5672 5670 5669 5667 5665 5663 5661 5658 5655 5653 5650 5647
Wind_Speed
13 13 14 15 14 16 17 17 16 15 15 16 16 17 17 18 19 20 20 20 20 20 19 19 19 19 18 17 16 15 15 14 12 11 10 9 8 7 5 5 4 4 3 4
13 13 14 14 15 15 16 16 15 15 14 16 18 17 17 18 18 19 20 20 20 20 20 19 19 19 18 18 17 16 16 15 14 13 12 11 10 9 8 7 6 6 6 5
13 14 15 14 13 14 14 16 14 14 14 17 18 17 18 17 18 19 20 20 20 20 20 20 20 19 19 19 18 17 16 16 15 14 13 12 11 11 10 9 9 8 8 8
13 14 14 12 14 13 13 15 15 15 16 17 17 19 19 19 18 18 19 20 20 20 19 20 20 20 20 20 19 18 17 16 16 15 14 13 13 12 12 11 11 11 10 10
15 15 14 13 13 13 13 14 15 16 17 18 19 19 20 19 19 19 18 19 19 19 19 20 19 19 20 20 19 19 17 17 16 16 15 15 14 14 13 13 13 13 12 12
15 15 13 11 12 13 13 13 14 15 16 18 19 18 17 18 19 18 19 19 19 19 19 19 19 19 20 20 20 18 18 18 17 17 16 16 15 15 15 15 15 15 14 15
16 15 12 11 12 13 13 12 13 14 15 16 17 17 18 19 18 18 19 19 20 20 19 19 19 20 20 20 20 19 19 19 18 18 17 17 16 16 17 17 17 16 17 17
17 15 12 13 14 13 11 12 13 13 14 15 15 17 18 18 18 19 20 20 20 20 20 20 20 20 20 20 21 21 20 20 19 19 19 18 18 18 18 18 18 18 19 19
18 16 14 13 13 11 11 12 12 13 13 15 15 16 17 18 18 19 20 20 20 21 21 21 21 20 20 21 21 22 21 21 21 21 20 20 20 20 20 20 20 20 21 22
20 18 17 16 14 13 12 12 12 13 14 14 15 16 17 17 18 19 20 20 21 21 22 22 21 21 21 21 21 22 22 22 22 22 22 22 22 22 22 22 22 22 23 23
21 19 18 16 15 14 14 14 13 13 14 15 14 15 16 17 18 19 20 20 20 21 21 21 22 22 22 22 22 23 23 23 23 24 24 24 24 24 24 24 24 24 25 25
23 21 19 18 18 17 17 16 15 15 15 15 15 15 16 17 18 19 20 21 21 21 21 22 23 23 23 24 24 24 24 24 24 24 24 24 25 25 25 25 26 26 27 27
22 21 21 20 19 19 18 18 17 16 17 17 17 17 17 18 18 19 20 20 21 22 22 22 23 24 25 25 26 25 25 25 25 25 25 26 26 26 27 28 28 29 29 30
24 23 22 22 21 20 20 20 19 18 18 18 18 18 19 19 20 20 20 20 21 22 22 23 24 24 25 25 25 25 25 26 27 27 27 27 28 28 29 29 30 31 31 32
26 24 24 23 23 23 22 21 21 21 20 20 20 20 20 21 21 21 21 21 21 22 23 24 25 25 26 26 26 26 27 27 28 28 29 29 29 30 30 31 32 32 33 34
28 26 25 25 25 24 23 23 23 23 22 22 21 21 21 22 22 22 22 23 23 23 24 24 26 26 26 27 27 27 28 29 29 30 30 31 31 32 32 33 33 34 35 36
30 29 28 28 27 26 26 26 26 25 24 24 23 23 23 23 23 23 23 24 24 25 25 26 27 27 28 28 29 29 29 30 31 31 31 32 33 33 34 35 35 36 37 38
32 31 31 30 29 28 27 27 27 26 26 25 25 25 25 25 25 24 24 25 25 26 26 27 27 28 29 30 30 31 31 32 32 33 33 34 35 36 37 37 38 39 40 41
33 32 32 31 30 30 30 29 29 28 27 27 27 26 27 27 27 27 26 26 26 27 27 28 29 29 30 31 32 32 33 34 35 35 36 37 38 39 39 40 41 41 42 43
33 33 32 31 31 30 30 30 30 30 29 29 29 28 28 28 29 29 29 29 29 29 29 29 30 31 32 32 33 34 35 35 36 37 37 39 40 41 41 42 43 43 44 45
32 32 32 31 31 31 30 30 30 30 30 30 30 30 30 30 30 30 30 31 31 31 31 31 32 33 33 34 35 36 37 37 38 39 40 40 41 42 43 43 44 44 45 46
33 33 33 32 32 32 31 31 31 31 31 31 31 31 32 32 32 32 33 33 33 34 34 34 34 35 36 36 37 38 39 40 40 41 41 42 42 43 44 44 45 46 47 48
35 34 34 33 33 33 33 33 33 33 32 33 33 34 34 34 34 34 35 35 35 36 36 37 37 38 39 39 39 40 41 41 41 42 42 43 43 44 45 46 47 48 49 50
36 36 36 35 34 34 34 34 34 34 34 33 34 34 34 35 35 36 36 37 37 38 39 39 40 40 40 41 41 41 42 42 43 43 44 45 46 46 47 48 49 50 51 51
36 36 37 36 36 35 35 36 36 36 35 35 35 35 36 37 37 37 38 38 39 40 41 41 42 42 42 42 43 43 44 44 45 45 46 47 48 49 49 50 51 51 52 52
36 36 36 36 36 36 36 36 37 38 38 38 38 38 38 38 38 39 39 40 41 41 42 42 43 43 43 43 43 44 45 46 46 47 48 49 49 50 50 50 51 51 52 52
37 37 37 37 37 37 37 38 38 39 40 40 40 40 40 40 40 41 41 41 41 42 42 43 44 44 45 45 45 46 46 47 48 49 49 49 50 50 50 51 51 52 52 53
Wind_Direction
224 228 224 225 224 225 227 226 230 227 225 219 220 212 203 203 200 197 199 202 204 205 207 208 209 210 212 213 215 214 215 217 218 220 223 225 227 229 239 254 269 285 304 319
226 230 232 229 228 230 228 228 229 227 222 218 221 212 206 206 207 202 200 202 205 207 209 211 211 211 214 216 217 217 219 221 222 224 226 229 232 234 242 252 263 274 283 293
229 230 232 231 231 232 228 226 223 222 220 218 220 218 213 208 208 208 206 206 207 208 211 213 213 215 215 217 219 219 221 223 225 227 230 233 235 238 244 250 259 268 276 283
229 228 232 226 228 229 230 223 220 217 217 220 219 217 212 209 207 206 207 210 211 211 212 213 214 216 217 218 220 221 223 225 228 230 233 237 240 243 247 252 258 265 272 278
233 236 236 230 231 233 232 226 223 221 220 221 220 217 212 209 210 208 207 209 211 213 214 214 216 217 218 221 223 224 225 227 229 233 237 240 243 246 249 254 260 266 272 277
231 236 235 223 226 229 231 228 225 223 222 221 222 218 213 210 210 210 207 208 212 214 214 214 216 218 219 223 224 226 228 229 231 235 239 242 244 247 250 255 261 267 272 277
231 236 226 214 216 221 225 224 221 220 218 215 214 214 214 212 211 211 211 212 215 216 216 217 219 221 223 224 224 228 230 231 233 237 241 243 245 249 253 257 262 268 273 277
231 233 221 218 219 219 219 215 216 218 219 217 217 215 217 217 215 214 216 215 216 218 219 221 222 224 225 225 227 230 233 235 237 241 243 245 247 251 256 260 264 268 273 277
232 230 225 219 218 216 217 218 219 224 225 224 223 218 217 219 219 218 220 219 220 221 222 224 227 228 228 229 230 233 236 239 241 244 245 247 250 253 257 262 266 269 273 276
228 226 225 223 223 222 226 226 227 228 227 227 225 221 218 220 221 221 222 223 223 225 226 228 229 229 231 233 234 235 238 241 243 245 247 249 253 257 259 263 266 270 273 277
226 228 230 230 229 230 230 231 234 234 232 231 230 225 223 224 225 226 225 225 225 225 227 228 230 231 233 235 236 238 240 242 244 248 251 253 254 258 261 264 268 271 274 278
228 232 236 235 233 232 233 237 240 239 235 234 235 232 230 229 228 229 229 228 228 228 229 231 232 234 236 238 239 241 243 245 247 250 253 256 258 262 263 266 269 272 275 278
230 234 236 234 233 233 235 239 242 242 239 239 239 237 236 233 233 233 232 232 232 233 234 234 235 237 239 240 242 245 246 247 250 252 255 258 261 264 267 268 270 273 275 277
234 236 238 237 236 237 239 239 241 241 240 240 240 239 239 237 237 236 236 236 237 238 239 239 239 240 242 243 244 245 247 249 251 254 257 260 263 265 268 271 272 274 275 277
237 239 240 238 237 237 238 239 241 242 243 243 242 240 240 238 237 238 240 240 242 242 243 243 243 244 244 245 247 248 250 252 254 257 259 261 264 267 269 272 274 276 277 279
238 240 240 239 239 238 239 240 241 242 243 243 243 243 242 241 241 241 243 243 245 246 246 246 245 246 247 248 250 251 253 254 257 259 261 263 266 268 271 273 276 278 279 281
237 239 240 241 241 241 239 240 241 243 244 244 244 244 244 244 244 244 244 245 246 247 248 248 248 248 249 251 253 254 255 257 259 261 263 265 267 270 272 274 277 279 280 282
237 239 241 241 241 241 240 240 241 243 244 244 245 246 246 246 247 246 246 247 248 249 250 251 251 252 253 254 255 256 258 259 261 263 265 267 269 271 274 276 278 279 281 283
238 240 241 241 240 240 240 241 242 243 244 245 246 247 247 248 248 248 249 250 250 251 252 253 254 255 255 256 257 259 261 262 264 266 268 269 272 273 275 277 279 280 282 284
238 239 240 242 242 243 242 243 244 245 245 246 247 248 248 249 249 250 250 251 252 253 254 255 256 257 257 258 259 261 263 264 266 267 269 271 273 275 276 278 279 281 283 284
236 238 240 242 244 244 244 244 246 246 246 247 249 249 250 250 251 251 252 253 254 256 256 258 259 260 260 261 262 263 265 266 267 269 271 273 274 275 277 278 280 282 283 285
238 239 240 241 242 243 244 245 246 247 248 249 250 251 251 252 253 253 254 255 256 257 258 259 261 262 263 264 265 266 267 268 269 271 272 274 275 276 278 279 281 282 284 285
238 240 241 242 243 244 245 246 247 248 251 252 253 253 253 254 254 255 256 257 258 259 261 262 264 265 265 266 267 268 268 269 270 272 273 275 276 277 279 281 283 284 285 286
238 239 241 242 243 245 246 247 248 250 252 253 254 254 254 255 256 257 258 258 260 262 263 264 266 266 267 267 268 269 270 271 272 273 275 276 278 279 280 281 283 284 285 286
240 240 242 243 245 246 247 248 250 251 253 254 255 255 256 257 258 259 260 261 263 264 265 266 267 267 268 269 270 270 271 271 272 273 275 277 278 280 281 282 283 284 285 286
240 242 243 244 246 247 248 250 251 251 252 253 255 256 257 258 259 260 261 262 263 265 266 267 267 268 269 270 270 271 272 273 274 275 277 278 279 280 281 282 283 284 285 286
243 244 245 246 247 248 250 251 252 252 252 253 254 256 257 258 260 261 262 263 264 265 266 267 268 269 270 270 271 272 273 275 276 276 277 279 279 280 281 282 283 284 285 287